RH
7 7 9 8 10 14 22 29 17 32 59 55 52 48 52 45 30 57 83 80 62 71 101 101 99 101 97 101 104 108 108 106 108 105 101 100 99 100 98 87 93 103 99 99 102 101 103 102 104 106 98 91 99 108 106 101 100 101 102 94 87 82 80 91 100 99 100 100 100 100 99 97 92 93 96 92 86 74 53 36 32 43 49 40 40 46 49 47 42 37 35 35 26 18 11 13 15
7 8 9 9 12 15 22 31 23 48 91 95 89 82 90 86 56 72 98 99 88 75 91 103 100 100 98 100 102 106 110 107 107 107 101 100 99 99 99 85 83 97 100 98 97 98 98 98 100 101 99 84 80 95 103 101 101 102 99 98 97 96 96 98 100 97 96 95 98 97 93 97 97 91 83 69 58 47 31 25 22 27 32 29 45 61 64 58 50 44 41 39 25 15 12 15 14
7 9 9 11 16 23 25 33 51 74 97 101 100 98 99 104 85 72 71 74 89 88 93 102 102 103 101 101 101 101 105 105 103 105 103 101 100 98 101 95 90 96 98 94 89 91 95 103 95 85 97 93 81 87 99 100 98 102 99 95 95 96 96 93 93 92 92 93 99 97 91 88 80 66 54 44 38 32 24 22 19 22 27 41 69 79 72 62 56 53 51 44 27 16 14 17 14
7 8 8 11 13 26 30 35 75 98 100 101 99 102 99 99 93 77 62 52 59 73 87 92 95 101 99 98 99 101 104 104 102 104 105 102 101 99 100 100 99 98 98 97 96 95 95 102 92 81 91 93 94 97 99 101 99 101 100 98 99 98 99 99 99 99 100 100 99 95 86 72 56 46 38 32 30 27 25 23 24 31 39 61 84 79 69 65 64 63 59 47 27 16 15 20 16
9 10 11 12 12 25 41 49 83 103 99 103 100 101 100 87 80 80 77 67 55 51 64 72 80 94 96 93 94 98 101 100 99 100 101 102 101 101 100 99 100 97 93 94 98 100 97 99 92 88 95 91 97 103 98 99 100 100 99 100 100 95 93 88 83 87 99 103 101 88 68 53 43 36 30 25 24 27 29 31 43 53 59 73 81 73 68 68 70 68 65 53 28 16 17 22 18
8 11 16 17 18 29 53 74 94 102 99 102 102 99 96 88 83 81 76 72 66 55 54 57 64 81 85 83 86 89 91 90 91 92 91 93 96 101 102 101 103 102 96 95 100 101 99 100 96 95 100 97 97 101 102 102 101 102 95 84 78 73 66 61 60 73 97 102 89 69 50 41 32 27 26 26 31 34 31 41 63 73 75 77 75 72 71 72 74 73 73 57 28 16 18 23 21
20 44 61 51 42 53 74 93 101 100 100 100 100 100 94 89 83 80 84 84 80 72 68 67 64 66 66 69 81 89 94 94 95 95 93 89 91 99 103 102 103 103 95 95 102 104 103 97 95 99 101 97 91 89 93 95 95 96 90 80 74 70 67 68 74 87 99 90 71 55 40 31 25 27 27 28 33 35 33 42 63 75 81 79 73 71 73 79 79 81 81 55 24 16 18 25 27
29 59 78 73 64 77 91 93 99 102 103 101 101 104 96 85 77 76 93 102 100 95 91 93 88 82 82 84 91 99 102 102 101 101 101 97 95 101 104 102 101 102 97 97 101 102 105 101 95 97 98 94 90 84 79 79 78 79 83 88 89 89 91 92 94 93 87 73 58 40 28 29 33 33 26 21 21 24 29 34 54 77 89 85 76 74 77 84 84 86 80 46 18 16 22 28 30
33 35 36 49 53 60 74 69 72 90 100 103 105 107 102 91 81 76 85 95 100 102 100 105 104 101 101 99 98 101 103 101 102 101 100 100 100 102 103 100 98 100 98 96 94 90 92 94 92 90 86 83 83 81 77 76 74 74 78 84 89 91 91 88 84 79 69 53 35 27 39 51 44 31 19 12 9 15 19 26 56 83 90 83 78 84 87 87 84 84 69 32 15 23 27 32 34
51 37 24 37 47 46 59 57 47 61 77 91 103 104 102 99 91 84 84 86 89 94 96 100 104 105 102 100 97 96 97 96 96 94 92 92 91 91 90 89 86 85 83 78 74 71 70 69 69 68 66 65 65 66 67 67 65 64 65 68 72 74 73 70 65 55 41 27 28 49 67 58 34 19 11 9 10 12 11 22 55 73 77 77 81 93 94 89 85 79 54 21 17 29 33 34 32
70 58 48 51 64 59 53 48 34 35 41 52 74 85 89 92 90 90 90 89 89 92 92 91 94 96 93 89 87 85 84 83 81 78 77 76 75 75 74 72 70 68 66 63 60 57 56 55 55 55 57 58 58 59 61 62 63 64 65 67 68 67 61 50 38 27 25 37 58 68 54 30 15 14 18 21 15 12 16 27 47 56 64 70 75 92 102 97 85 69 39 17 19 26 30 27 28
68 67 66 57 60 55 39 32 25 21 21 22 34 48 59 69 75 81 89 96 97 96 94 91 90 88 86 81 77 74 71 67 64 61 58 57 56 56 57 56 55 55 53 50 48 46 45 48 52 57 61 61 62 64 64 66 67 66 61 56 50 40 30 23 23 31 50 65 63 42 21 13 15 23 29 31 24 22 27 31 40 44 47 45 48 75 94 87 68 50 28 15 20 20 18 20 35
54 54 51 40 33 30 25 22 20 15 13 11 11 16 24 35 46 55 69 86 96 98 96 94 90 87 84 80 75 71 67 63 58 54 51 49 49 48 48 46 43 40 37 34 31 32 36 40 43 48 51 47 45 43 43 43 41 37 31 24 19 18 22 30 43 60 69 58 36 21 16 17 21 25 27 33 29 24 30 38 44 41 37 31 33 49 55 51 44 34 22 16 19 17 20 37 55
56 48 34 30 24 19 23 20 15 12 10 9 7 8 8 11 16 22 33 48 63 73 78 81 83 82 80 77 73 70 66 62 57 54 51 48 45 42 37 32 27 24 21 21 23 27 28 26 25 26 26 23 23 24 24 24 21 19 20 23 31 41 47 50 59 65 55 35 24 21 18 20 29 30 29 36 33 36 56 65 59 55 54 45 39 42 41 44 39 27 22 18 15 24 43 58 63
55 57 30 23 24 19 26 23 16 11 7 8 7 7 7 7 7 8 10 13 21 28 35 42 48 53 56 58 58 58 55 51 47 42 38 33 29 24 21 19 17 16 14 15 16 16 15 13 14 17 20 23 24 23 23 22 25 31 39 46 50 50 43 40 48 49 37 28 25 22 19 29 42 46 48 50 51 69 83 75 64 68 77 64 46 42 45 49 38 28 24 16 13 31 52 58 66
37 47 21 11 18 19 25 27 24 17 12 13 12 12 11 9 9 7 7 7 7 8 10 13 16 19 22 25 27 28 28 26 24 21 19 17 15 15 14 14 11 10 10 10 11 12 15 18 20 23 26 28 23 21 23 30 36 41 47 45 35 27 24 25 30 33 31 29 25 19 24 43 56 66 75 70 72 88 84 72 65 62 74 74 55 35 28 32 29 28 24 17 23 42 61 73 87
18 26 11 4 12 17 22 26 27 23 22 23 21 23 23 22 21 17 15 12 12 12 11 12 12 12 11 12 11 11 12 12 12 12 13 13 13 12 11 9 9 11 14 17 20 24 27 26 23 21 21 19 18 25 34 41 39 33 36 33 23 20 24 27 29 32 33 28 24 24 37 55 67 75 79 73 77 90 81 68 58 46 57 70 64 40 18 20 27 28 29 34 49 66 82 93 99
11 16 11 6 8 14 20 26 26 22 24 26 28 31 33 33 29 27 26 23 30 32 23 19 17 16 15 14 13 13 12 12 11 11 11 11 11 11 11 14 17 23 28 29 29 29 27 25 22 17 16 21 28 37 41 37 25 19 23 25 35 44 39 35 35 33 29 25 27 40 56 63 71 77 74 75 84 89 76 56 44 35 40 54 68 60 37 35 43 41 45 59 70 78 84 85 91
8 10 11 7 7 13 21 28 26 24 28 33 36 38 40 40 34 34 33 29 42 41 21 17 16 16 19 18 16 14 12 12 10 10 10 11 12 11 12 16 22 29 30 26 23 22 26 30 26 21 23 32 38 37 33 25 14 15 19 21 42 61 46 33 30 25 23 28 38 53 63 65 73 81 78 83 92 90 78 56 38 32 30 38 60 73 64 59 69 69 66 76 78 72 72 76 86
7 7 10 8 7 11 18 25 27 30 37 41 41 38 38 39 39 37 33 30 33 29 17 13 13 15 19 19 16 11 9 9 8 9 10 10 10 8 9 10 14 19 20 20 20 22 30 33 26 24 27 30 30 26 20 14 12 13 15 17 30 41 30 18 16 17 25 40 61 64 57 62 73 81 82 87 98 98 92 67 39 34 31 30 48 72 79 72 79 91 88 90 93 78 68 77 89
7 7 9 8 6 9 13 19 24 28 31 33 27 23 20 26 43 38 34 39 24 21 31 24 14 12 13 12 9 7 6 6 6 7 8 8 9 8 8 9 9 11 14 17 17 18 23 23 17 16 17 17 16 14 13 11 13 12 11 16 18 19 14 10 10 19 43 64 85 80 59 65 67 62 63 76 98 103 99 82 50 39 36 31 40 58 75 79 80 94 98 96 102 95 83 84 86
9 8 8 8 8 7 8 12 17 19 19 21 15 16 12 20 60 70 67 76 46 27 38 33 20 11 8 7 5 5 4 5 5 6 8 9 10 10 10 9 9 9 11 11 10 11 12 12 11 10 9 9 10 10 12 12 12 11 11 15 17 18 13 12 15 27 61 83 93 92 74 66 57 51 61 79 101 101 95 92 66 44 42 39 36 40 54 74 85 94 98 94 99 102 101 95 83
13 11 8 8 9 7 7 8 12 14 14 16 13 17 15 14 57 93 98 94 64 37 31 28 24 17 14 12 9 7 5 6 7 7 9 10 11 12 12 11 11 10 10 10 9 9 8 8 9 11 11 10 10 10 12 12 12 12 12 13 14 16 15 24 32 37 66 88 90 97 84 65 63 75 91 97 102 100 90 91 80 54 49 51 43 38 37 50 76 95 98 91 92 97 98 91 80
13 15 14 9 8 9 9 8 10 13 13 15 13 13 21 19 33 68 86 76 60 48 33 28 27 20 18 15 13 12 10 10 9 10 10 11 14 14 14 13 12 12 11 11 11 11 9 9 10 13 14 12 12 12 12 13 13 13 13 13 14 20 29 47 58 49 56 72 78 91 84 67 75 92 101 97 91 94 91 92 90 67 57 60 50 45 39 35 55 85 98 91 89 93 95 89 77
11 15 21 18 13 9 9 10 9 12 11 12 13 13 35 59 58 54 55 50 53 56 39 29 29 24 18 14 14 14 13 14 12 13 13 12 15 16 15 15 15 14 14 16 16 17 15 12 12 13 14 13 13 13 14 15 15 14 13 13 19 32 46 62 79 77 60 53 54 67 78 76 83 95 101 97 87 88 92 94 92 76 68 63 52 52 51 41 41 61 83 87 87 89 93 92 79
9 11 17 21 20 14 10 10 8 11 12 12 13 14 42 79 87 78 69 57 50 51 39 28 32 30 20 12 11 14 14 15 15 14 16 15 18 20 19 19 22 20 18 19 20 22 19 15 14 15 15 15 15 15 16 16 14 13 10 10 20 42 57 58 73 95 92 77 60 55 67 77 86 100 104 98 95 93 89 88 87 85 82 68 54 56 60 54 42 42 56 65 69 72 76 80 77
9 9 11 15 18 17 13 12 11 10 11 15 15 17 32 46 63 87 94 75 48 39 41 40 43 34 22 19 14 13 14 13 14 14 16 17 17 19 19 19 22 20 18 19 22 22 18 17 17 16 16 16 17 16 15 14 12 10 9 9 17 40 59 58 61 85 101 99 86 69 64 65 72 93 106 102 98 92 84 84 88 90 90 79 66 63 66 67 56 43 41 44 47 51 55 60 66
10 10 10 13 17 19 19 17 15 15 13 16 17 17 25 34 58 76 70 65 53 48 60 68 70 46 21 22 19 15 13 12 14 14 15 16 15 15 14 15 15 15 17 18 19 18 17 18 17 15 16 17 17 16 14 12 11 11 13 13 18 32 45 55 60 68 76 78 74 63 59 62 59 70 96 107 99 88 83 87 93 97 98 92 81 72 69 72 72 61 50 45 40 36 36 42 52
10 10 10 12 18 19 21 22 21 22 22 22 23 22 27 38 55 51 42 55 57 64 91 92 79 56 26 18 21 21 16 12 13 13 15 15 15 14 13 14 14 14 16 15 16 16 16 15 14 15 14 14 13 14 14 13 13 12 14 14 19 28 35 46 56 60 64 63 57 45 40 51 59 66 86 102 100 90 85 87 94 96 93 89 82 73 67 69 76 74 66 58 49 39 32 31 39
9 10 10 11 19 22 21 25 27 24 24 28 28 28 33 41 45 34 28 36 32 46 85 88 63 43 28 22 25 26 20 17 16 13 14 15 15 14 14 16 15 16 15 13 14 14 14 12 12 13 12 12 12 12 12 12 12 11 12 12 12 21 30 35 38 42 48 50 51 44 35 38 49 62 77 90 97 96 96 95 94 89 86 89 87 81 72 64 65 71 72 67 60 52 43 34 36
12 9 10 10 17 26 24 23 27 31 38 41 34 29 32 40 41 31 26 32 30 28 47 60 49 37 35 36 43 43 34 27 20 14 14 15 15 13 14 16 14 14 14 12 12 11 11 11 11 10 10 11 10 10 10 10 11 10 10 11 10 17 26 29 26 25 28 31 38 44 54 65 65 61 62 66 72 80 87 92 92 90 88 91 92 92 89 75 62 58 60 62 62 61 56 45 39
17 12 10 10 11 18 20 18 23 30 39 39 34 31 28 29 31 34 43 45 42 39 40 40 39 48 51 49 66 69 56 45 31 22 21 17 14 12 13 15 13 11 11 10 10 10 10 10 10 10 10 10 10 10 10 10 10 11 12 13 12 14 18 23 24 22 23 27 32 39 56 78 87 83 76 66 57 56 62 71 80 80 71 67 73 83 91 92 84 69 57 54 58 62 66 59 44
20 17 13 11 9 10 12 16 22 24 24 24 24 26 23 25 32 47 66 67 60 61 60 48 40 52 59 68 88 81 74 78 52 29 29 22 13 12 13 13 11 11 11 11 11 10 11 10 10 10 10 10 10 10 11 11 10 11 12 12 12 12 12 14 16 17 19 21 22 25 30 39 50 57 61 60 54 49 45 45 50 49 41 37 42 50 55 63 75 82 78 69 67 65 69 75 62
22 21 18 15 12 10 10 13 20 21 18 17 18 21 20 21 25 37 53 64 67 62 61 60 50 52 65 85 89 66 76 95 59 28 25 20 14 12 13 12 11 11 10 11 11 10 11 11 11 11 11 11 11 11 11 11 11 11 11 11 11 11 11 11 11 11 12 14 13 13 14 15 16 18 21 27 30 31 30 25 23 23 22 20 20 24 24 23 31 50 67 74 79 76 73 82 83
23 22 21 21 17 14 12 10 13 16 16 15 15 18 21 20 19 24 31 43 60 63 58 55 53 64 73 69 55 43 64 73 48 38 31 18 17 14 11 12 11 11 11 11 11 11 11 11 12 11 12 12 11 12 12 11 12 11 11 11 11 11 11 10 11 11 11 11 12 11 11 11 11 12 12 13 14 15 17 17 16 15 16 16 15 15 16 17 17 21 32 45 57 68 75 80 90
24 24 23 23 22 19 17 14 12 13 14 16 17 19 21 22 23 23 22 27 43 51 44 40 49 63 55 37 32 39 47 39 30 45 45 24 18 16 11 12 11 10 11 11 11 11 11 11 12 13 13 13 12 12 12 12 12 12 12 12 12 11 11 11 10 11 11 11 11 11 11 11 11 12 12 12 13 13 13 14 14 15 15 16 17 17 17 17 18 18 18 23 28 37 51 62 78
25 26 25 24 24 23 22 20 17 15 15 16 17 20 18 17 23 26 24 20 21 23 22 28 37 37 28 21 23 26 30 28 24 33 36 24 19 19 14 11 12 12 13 14 14 14 13 12 12 12 12 13 13 13 12 12 11 12 12 12 12 12 11 12 12 11 12 12 12 12 11 11 11 11 12 11 12 12 13 14 13 14 15 15 16 17 19 19 19 20 18 18 19 19 25 35 48
24 26 26 27 26 26 25 23 23 21 20 19 19 27 29 26 22 15 17 19 16 15 14 18 24 22 21 20 15 14 19 24 28 30 26 17 19 25 19 12 13 16 18 19 18 18 18 15 13 13 13 13 13 13 13 12 13 12 12 13 12 13 13 12 13 12 12 12 12 12 12 12 12 11 12 11 11 11 11 13 13 14 14 14 16 16 18 21 20 21 20 18 18 18 18 20 24
19 24 26 27 27 28 29 27 26 24 24 22 23 38 51 56 50 27 16 16 13 17 17 15 20 19 18 20 16 14 15 16 23 30 27 20 21 27 27 21 19 25 27 25 23 21 23 23 17 12 12 13 13 13 14 12 13 13 12 14 13 13 14 13 13 13 13 13 13 13 13 12 13 12 12 12 12 12 11 12 12 14 15 14 15 16 16 18 20 21 22 22 20 19 18 18 18
14 19 23 27 27 27 29 30 30 28 28 26 25 36 43 52 67 62 44 32 23 24 25 21 21 20 21 24 21 19 22 24 23 25 28 30 29 30 34 35 36 45 49 48 44 32 27 32 29 22 23 24 20 15 15 14 13 14 13 13 14 14 14 14 14 14 13 14 13 13 14 13 14 13 13 14 13 13 12 12 12 12 14 15 15 16 16 16 17 18 19 21 22 21 19 18 17
15 14 17 23 27 27 27 29 31 31 31 30 27 31 31 30 42 49 44 41 37 34 34 33 30 29 29 26 25 28 30 31 30 30 35 40 41 39 41 47 52 63 73 81 83 65 47 42 40 43 45 38 30 21 17 17 14 14 15 14 14 14 14 14 14 15 15 14 14 14 14 13 14 14 14 14 14 14 13 13 13 13 13 15 16 16 17 17 16 16 18 19 20 22 21 20 19
17 15 14 17 21 25 27 26 28 30 32 34 32 30 30 29 29 30 29 31 34 34 40 48 42 35 34 29 26 30 29 29 31 35 37 41 53 54 51 60 70 76 81 83 85 78 72 62 42 42 50 38 28 28 29 30 22 15 16 15 15 15 14 15 15 15 16 15 16 15 14 14 14 14 14 14 14 14 14 14 13 14 14 14 15 16 16 18 18 17 17 18 19 21 22 21 21
19 17 15 14 15 20 25 27 26 27 28 31 34 33 32 32 32 32 31 28 28 29 36 49 45 33 34 32 28 30 31 30 30 33 33 32 46 52 50 63 70 65 61 54 52 56 74 84 52 37 64 60 33 31 38 38 28 17 17 16 15 16 15 15 15 16 16 16 17 16 16 15 14 14 14 13 14 13 14 14 14 14 14 14 14 15 16 17 18 19 18 18 18 19 21 22 22
20 19 17 16 14 15 19 25 28 28 28 27 29 32 32 33 33 32 33 32 31 30 30 36 35 29 32 33 31 32 31 31 30 32 33 29 34 37 40 54 57 50 44 38 46 57 72 94 80 66 90 79 37 28 34 32 25 19 19 18 16 16 15 16 16 16 16 16 17 17 17 17 16 16 16 15 14 14 14 14 14 15 15 15 14 14 16 16 17 18 19 20 19 18 19 21 22
19 19 19 17 16 15 14 18 23 26 29 28 28 30 31 32 33 32 32 32 32 33 32 32 32 31 33 35 36 35 32 33 32 32 34 32 32 32 37 46 47 47 44 36 49 67 69 81 90 89 86 60 31 31 32 27 25 23 20 19 18 18 17 17 17 17 17 16 16 17 17 18 17 17 17 17 16 15 15 15 14 15 15 16 16 16 16 17 17 17 18 19 20 20 19 18 20
19 20 20 19 17 16 15 14 16 20 23 26 28 31 34 36 35 33 34 33 32 32 32 33 34 34 34 34 37 37 34 35 36 37 37 34 33 33 33 38 41 40 40 37 44 53 50 50 57 59 51 36 31 35 33 31 30 26 23 22 20 20 19 18 18 19 18 16 17 17 17 17 18 18 18 18 18 17 17 16 15 15 16 16 16 17 17 17 17 17 17 18 18 19 19 19 18
18 21 20 20 19 18 17 15 14 15 17 19 23 26 30 34 35 35 36 36 35 35 34 33 33 34 35 35 36 37 34 34 37 42 43 44 48 44 33 33 38 38 38 37 38 39 38 36 34 33 33 33 34 34 34 36 34 30 28 25 24 23 21 20 20 20 18 16 17 17 17 18 18 19 19 18 19 20 19 18 17 16 16 16 17 17 18 17 17 18 18 18 18 18 18 18 18
17 20 20 19 20 19 18 17 15 15 15 15 17 19 21 24 26 28 30 32 33 33 34 34 32 32 32 34 38 39 37 33 34 38 40 46 60 64 53 42 38 40 43 39 36 37 37 35 31 30 31 32 32 33 34 34 33 33 31 29 29 28 26 25 23 23 21 19 19 18 17 18 20 20 20 20 20 21 21 18 17 17 16 16 17 17 19 18 17 18 19 19 18 18 18 18 17
17 19 19 19 20 20 19 18 17 15 15 15 15 15 16 17 18 20 21 23 25 26 26 27 28 28 28 31 35 39 40 35 33 37 37 36 47 59 58 53 47 44 44 41 35 36 38 37 34 32 32 33 33 35 36 35 35 35 33 33 34 32 31 29 27 27 26 23 23 26 23 19 20 21 20 21 21 22 23 20 18 18 17 17 17 17 18 19 19 18 19 21 21 20 20 20 18
19 18 18 18 19 19 20 20 19 17 16 16 15 15 15 15 16 16 17 17 19 20 20 20 21 21 22 24 27 31 35 35 33 36 39 36 36 38 40 49 59 55 46 39 36 36 38 39 38 36 36 37 38 38 38 38 38 37 37 37 37 36 35 33 32 34 36 32 29 34 34 24 20 22 22 21 23 24 24 23 21 20 18 18 17 17 18 19 20 19 18 19 21 21 22 21 20
23 19 18 18 18 18 19 20 20 19 18 17 16 15 15 15 15 15 16 16 16 17 17 18 18 18 18 18 20 22 24 28 30 30 34 35 35 35 34 40 52 53 43 37 36 36 37 41 45 45 43 43 43 43 43 43 42 41 42 41 40 40 39 36 37 43 48 44 36 40 45 34 23 22 23 23 24 26 26 25 23 23 22 20 18 18 18 18 19 19 18 18 19 20 21 21 20
28 24 20 18 18 17 18 18 20 20 19 18 17 16 16 15 16 16 15 15 15 16 16 16 17 17 16 16 16 18 19 20 23 24 26 28 30 33 32 33 39 40 38 38 37 36 38 46 53 53 50 50 51 50 48 47 46 46 46 46 45 44 42 41 43 48 50 47 44 48 52 47 35 24 23 24 25 29 29 26 24 24 25 25 23 21 20 19 20 20 19 18 18 19 19 19 19
32 30 25 20 19 18 17 17 18 19 19 19 19 17 16 16 16 16 16 16 16 16 16 15 16 16 16 16 15 16 17 17 19 20 21 22 25 27 28 30 33 35 39 42 39 38 41 50 65 71 65 66 73 71 62 55 51 51 52 50 49 49 49 48 50 52 51 51 57 60 62 66 54 29 22 25 26 30 29 25 24 25 27 30 28 25 23 22 22 22 21 19 18 18 19 19 20
31 33 31 26 22 19 18 18 17 17 18 19 19 18 18 17 17 17 16 17 18 18 17 16 16 15 15 17 16 15 16 16 17 19 19 20 21 22 23 24 27 33 41 44 40 40 43 54 78 89 83 90 99 88 72 65 59 55 57 56 53 55 54 51 53 57 59 64 76 80 83 90 70 33 22 26 27 31 30 24 25 27 30 34 31 27 25 24 24 23 22 21 19 18 18 18 19
29 33 34 32 29 24 20 19 18 18 17 17 18 18 19 18 17 17 17 18 19 20 20 18 17 16 16 17 17 17 16 16 17 17 18 19 19 20 21 22 24 28 34 37 38 39 39 47 66 72 71 90 105 89 68 64 64 61 61 61 60 60 57 53 55 62 68 80 92 89 84 81 57 28 23 28 30 34 31 26 27 28 30 33 31 28 27 26 25 24 22 21 19 18 18 18 18
31 33 35 35 34 32 28 23 20 19 18 18 18 17 18 18 17 18 17 18 19 20 20 20 19 18 17 17 18 18 16 16 17 17 17 18 18 19 19 20 22 23 26 29 30 32 31 33 43 46 49 67 83 76 58 56 63 63 63 68 68 64 59 55 57 66 81 96 97 77 58 48 35 24 26 29 35 41 36 29 28 29 29 30 29 28 29 29 27 25 24 22 20 18 17 17 17
33 34 34 36 36 36 35 31 25 22 20 18 18 18 17 17 17 17 18 18 19 20 19 19 20 20 19 19 20 19 18 18 17 17 18 18 18 18 18 19 20 20 23 24 25 27 25 26 29 33 38 46 52 54 51 58 67 64 68 77 74 64 60 55 56 72 91 103 98 73 48 36 29 25 27 28 35 44 42 34 29 29 27 26 27 28 29 31 30 28 27 23 21 19 17 17 17
35 34 33 35 37 36 36 35 33 30 27 23 20 18 18 17 17 16 17 18 18 19 19 18 20 21 20 20 19 20 20 19 18 18 18 18 18 18 17 18 18 19 20 21 23 23 22 24 24 26 32 34 37 41 46 58 67 69 79 89 78 64 60 57 59 75 91 99 103 91 62 40 30 27 29 31 34 44 46 38 30 29 27 25 25 27 28 29 29 28 27 24 23 20 19 18 16
Wind_Speed
26 25 23 21 20 21 21 20 21 21 20 21 21 21 20 22 25 26 24 23 28 33 32 27 23 21 20 24 28 28 27 27 27 25 23 22 21 19 18 21 20 21 22 21 23 25 26 25 25 25 25 26 27 28 28 25 26 25 21 22 27 31 36 37 34 32 32 33 37 41 44 46 48 49 50 51 52 53 54 54 54 55 54 53 50 48 45 42 38 35 32 33 33 29 23 15 11
26 25 24 22 20 21 23 21 21 22 22 21 20 19 18 20 25 29 28 23 24 30 33 27 23 23 21 22 25 27 28 28 27 26 24 22 21 20 20 21 22 25 26 27 28 28 29 28 26 26 26 27 26 27 28 28 28 29 29 28 27 29 32 35 36 37 39 42 46 49 51 51 50 50 51 53 54 55 56 56 56 54 51 46 40 35 31 29 28 28 30 33 32 26 19 12 7
26 25 24 23 22 22 23 22 22 23 25 25 23 22 21 21 23 28 30 27 24 26 31 30 26 24 23 22 23 25 26 27 27 28 27 24 22 22 23 23 22 23 24 27 29 29 29 28 26 25 23 24 25 26 30 32 34 35 38 37 33 32 35 37 40 42 44 48 50 50 51 52 53 55 56 58 58 59 59 58 55 50 45 36 29 25 24 25 27 30 33 35 32 25 17 11 6
24 24 23 23 23 23 23 23 23 23 25 27 26 25 24 23 22 24 28 29 28 26 28 30 29 27 26 24 24 25 25 25 26 27 29 28 26 24 25 25 23 23 23 24 25 27 30 30 27 25 24 23 24 26 30 33 35 36 39 39 37 38 41 43 45 46 47 48 48 50 52 55 57 58 59 59 58 57 54 51 46 42 36 28 23 23 23 25 29 32 35 35 31 23 15 10 6
23 23 22 21 21 22 22 23 24 24 24 26 27 26 25 24 23 23 25 27 29 28 28 29 29 28 28 27 26 26 27 27 26 26 28 29 29 29 28 27 26 26 27 27 26 26 29 31 29 27 28 28 28 28 30 32 33 36 39 40 42 44 47 49 51 53 54 53 52 54 56 57 57 58 59 57 53 49 45 41 36 33 29 24 22 23 25 27 30 33 35 34 29 21 14 9 5
22 21 20 19 20 21 21 21 24 24 22 23 25 26 25 24 23 22 23 24 26 28 28 29 29 29 29 29 28 28 28 29 29 30 30 30 31 32 32 31 30 28 29 31 31 30 29 30 30 30 32 32 33 34 34 35 37 39 41 44 47 49 50 52 54 57 58 56 56 57 58 57 58 59 56 52 46 41 37 33 30 27 25 23 24 25 27 28 31 33 34 33 27 18 12 9 6
20 19 16 18 20 21 21 20 23 25 23 22 23 24 24 23 23 22 21 22 24 25 26 27 28 29 29 30 30 30 29 29 29 30 31 32 33 33 34 34 35 35 34 35 34 33 33 33 33 33 34 35 37 40 40 40 42 44 44 47 49 51 52 54 55 57 57 57 58 58 59 59 58 54 49 45 41 37 33 31 29 26 25 26 27 28 28 29 31 32 32 30 24 15 9 8 7
18 17 15 17 20 21 22 21 22 26 25 24 23 22 22 22 22 23 23 23 23 24 24 24 25 27 28 29 29 29 28 28 28 28 29 30 31 31 31 31 33 36 36 38 37 36 36 37 38 39 39 40 41 43 45 46 48 49 49 50 52 53 53 53 54 55 56 57 58 59 59 55 50 46 43 41 38 35 32 30 29 26 26 28 30 31 31 30 29 29 29 26 19 11 7 7 6
14 16 15 15 17 19 20 20 22 25 26 26 25 24 23 22 22 23 24 25 25 25 24 23 22 23 25 26 26 26 26 26 27 27 27 27 28 29 29 29 29 31 33 35 36 36 36 37 38 40 41 42 43 44 46 48 48 49 50 51 51 52 52 52 53 54 56 57 57 55 50 45 43 43 41 38 35 33 32 30 28 27 28 30 33 34 32 30 29 27 25 21 13 8 6 5 5
11 13 15 15 15 18 18 19 21 24 26 27 27 26 24 24 23 23 24 25 26 26 26 24 23 23 23 24 24 24 24 24 25 25 26 26 27 27 28 29 29 30 31 32 33 34 35 36 37 38 39 41 42 43 45 46 47 47 48 49 50 50 51 52 53 54 55 53 49 45 42 42 42 40 38 35 33 32 31 29 28 28 30 32 35 36 33 30 28 25 21 15 8 5 5 3 3
11 11 12 14 15 18 17 17 19 22 24 25 27 27 26 26 25 25 25 25 26 27 27 27 26 26 25 26 25 25 25 25 26 26 27 27 28 29 29 30 31 32 33 34 34 35 36 37 38 39 40 41 42 44 45 46 47 48 48 49 50 51 52 52 52 51 47 43 40 39 40 39 37 35 34 33 32 30 29 28 28 30 32 35 37 36 32 30 27 22 17 10 4 4 4 1 1
10 9 9 12 16 17 15 15 18 20 21 22 24 26 27 27 27 27 27 27 28 28 29 29 29 29 29 29 29 29 30 30 30 30 30 31 32 32 32 33 33 34 35 35 36 37 38 39 40 40 41 42 43 44 45 47 48 49 49 50 50 50 49 47 44 41 38 36 36 37 36 34 32 31 30 28 27 27 26 27 28 29 31 33 33 31 28 27 23 19 15 7 1 4 5 3 4
7 7 7 11 13 15 14 14 16 17 18 18 19 21 23 25 27 28 29 30 30 30 31 31 31 32 32 32 33 33 33 33 33 33 34 34 35 35 35 35 35 35 35 36 36 37 38 39 40 40 41 42 43 44 44 45 45 45 44 43 41 40 38 37 35 34 33 34 34 33 31 29 28 28 25 23 22 22 23 23 23 23 22 23 23 23 23 22 20 18 13 4 3 7 7 7 7
5 4 5 6 7 9 11 12 13 15 16 15 16 16 18 20 22 25 27 29 30 31 32 32 33 33 34 34 34 34 34 34 34 34 35 35 35 35 35 34 34 34 34 34 35 36 37 37 38 39 39 39 38 37 36 35 34 32 31 31 30 29 30 30 30 30 30 30 30 29 27 25 25 24 21 19 18 17 18 17 16 16 17 17 18 18 18 19 19 16 9 3 6 9 11 11 8
6 6 5 4 4 6 7 9 11 13 13 13 12 12 13 15 17 20 22 25 26 28 29 31 32 33 34 34 34 34 34 34 34 34 33 33 33 33 32 32 32 32 32 32 32 32 33 32 32 32 31 30 29 27 26 24 22 21 22 24 24 25 26 26 26 27 27 27 27 25 23 22 22 18 15 14 13 13 14 14 14 16 18 19 20 18 16 16 16 11 7 6 8 12 12 11 9
8 9 7 5 5 5 4 6 8 9 10 9 8 8 8 10 12 15 17 19 20 22 24 25 27 29 30 31 32 32 32 32 31 31 30 29 29 29 28 28 27 27 27 26 26 26 25 25 25 25 24 23 22 21 18 16 16 18 20 22 23 23 23 23 24 25 25 25 23 22 20 20 18 13 10 11 10 10 11 12 15 18 19 21 21 20 16 13 11 8 8 11 14 14 13 12 9
8 10 9 7 6 5 4 4 4 5 5 5 4 4 4 5 7 10 12 13 15 17 18 19 20 21 22 24 25 26 26 26 26 25 24 24 23 22 22 21 21 21 20 20 20 20 19 19 19 19 19 18 16 14 13 15 18 18 20 21 21 20 21 22 23 23 24 23 20 20 19 18 15 10 9 10 9 7 9 12 15 17 18 19 20 20 17 12 10 9 12 16 16 14 12 11 9
5 10 11 9 7 6 5 4 4 4 4 4 4 3 2 2 3 5 7 8 9 10 11 11 12 14 15 17 18 19 19 19 19 18 18 17 16 16 15 15 15 15 15 16 16 16 15 15 15 15 15 13 11 12 15 18 19 19 19 20 18 18 20 22 22 23 23 21 19 19 17 15 13 10 10 10 8 5 8 11 14 16 18 18 17 18 16 11 10 10 14 15 14 13 11 10 8
1 6 10 10 8 8 7 6 5 6 6 5 5 4 3 2 2 3 5 6 6 6 6 7 8 9 10 12 13 13 14 13 13 12 12 11 11 11 11 12 13 13 13 13 13 12 11 12 12 12 12 11 12 15 18 19 19 19 19 18 18 19 21 22 21 21 21 19 18 18 17 15 13 11 10 10 10 6 5 9 12 15 18 19 17 15 14 11 8 7 10 12 12 10 9 8 7
6 3 5 9 9 9 9 8 8 7 7 7 7 6 5 4 5 6 7 7 8 7 6 7 7 7 7 8 9 9 9 9 9 8 8 7 7 8 8 9 10 11 11 10 10 10 10 10 11 11 12 13 15 17 18 18 18 19 18 18 19 20 22 21 20 20 19 17 16 17 17 16 14 12 11 10 8 3 2 7 9 13 16 18 18 15 13 12 9 6 4 6 8 7 6 5 5
11 8 5 6 9 10 10 10 10 10 9 9 9 8 7 7 8 8 8 7 8 7 7 7 5 5 5 5 6 6 5 5 5 5 5 5 6 7 8 8 9 9 10 9 10 10 10 11 11 12 13 14 15 15 16 17 17 18 18 18 18 20 21 20 19 18 16 15 15 16 16 16 15 13 12 10 6 2 2 6 7 10 13 15 16 15 13 12 9 7 4 2 5 5 4 3 4
16 12 8 5 7 10 11 11 12 12 12 11 10 9 8 8 8 8 5 4 6 6 6 5 2 2 2 2 2 3 2 2 3 3 4 5 7 8 9 9 10 10 11 11 11 11 11 12 12 13 13 14 14 14 15 16 16 17 17 17 17 19 19 19 19 17 16 15 15 15 16 16 13 11 11 10 6 5 5 5 5 7 9 11 13 14 13 11 9 8 5 1 5 4 4 4 6
20 17 12 8 7 8 10 11 12 12 13 13 12 10 8 8 9 8 4 3 5 5 4 3 1 1 2 2 2 2 2 3 4 5 6 7 8 8 9 9 10 11 12 12 12 12 12 13 13 13 13 14 14 14 14 14 15 16 16 16 17 17 17 18 18 17 17 17 16 15 15 15 12 10 10 9 6 6 8 8 5 4 5 7 9 11 12 11 9 6 4 0 4 6 7 7 8
23 21 17 13 9 7 8 9 11 12 13 14 13 12 8 6 8 6 3 3 4 3 3 2 1 2 3 4 4 4 4 4 5 6 7 8 9 9 9 10 11 11 12 13 13 13 13 13 13 13 13 13 13 13 13 14 14 15 16 16 16 16 16 17 18 18 18 18 17 16 15 15 13 12 12 11 11 11 11 10 7 3 2 3 6 8 10 10 9 6 3 3 4 7 8 9 10
25 23 20 18 14 11 9 9 10 12 14 14 13 12 9 6 5 4 2 2 3 3 2 1 2 3 5 6 6 6 6 6 7 8 8 9 9 9 9 10 11 11 11 12 12 12 12 12 12 11 11 12 12 13 13 13 14 15 16 16 15 15 16 17 18 18 18 18 18 18 16 15 16 16 16 15 14 13 11 9 7 5 5 6 7 9 8 8 8 6 5 5 6 8 10 11 12
26 24 21 20 19 17 15 13 12 12 13 13 12 11 9 7 5 3 2 2 3 3 1 3 4 5 7 8 8 8 8 8 8 9 9 9 9 9 9 9 9 10 10 10 10 10 10 10 11 11 11 11 12 12 12 12 13 14 15 16 15 15 15 17 18 18 17 18 18 18 18 17 18 18 17 17 14 11 9 6 5 5 6 9 11 12 10 8 7 6 7 8 9 10 11 13 14
28 26 23 21 21 21 20 19 17 15 14 13 12 10 8 5 3 3 2 2 2 0 1 4 5 6 8 8 8 8 8 8 9 9 9 9 8 9 9 9 9 9 10 9 9 9 9 9 10 11 11 11 12 12 13 13 14 15 16 16 16 15 15 16 18 17 17 18 18 19 19 19 20 19 18 18 16 11 9 6 6 8 11 14 16 15 13 11 8 7 7 9 11 12 13 13 14
27 27 25 22 22 22 22 21 20 18 16 14 12 10 7 5 3 1 2 3 4 4 4 4 5 6 8 8 8 8 8 8 8 8 8 8 8 8 8 9 9 9 8 8 8 8 9 10 11 11 12 12 12 12 13 14 15 16 16 17 17 16 17 18 18 17 16 17 18 19 20 20 20 21 19 18 18 16 13 12 14 18 20 20 19 18 16 13 12 10 10 10 11 13 15 14 15
25 26 26 24 22 22 22 21 22 21 18 16 13 11 8 6 4 4 5 6 7 7 6 6 6 7 9 9 9 9 9 9 9 8 8 8 7 7 8 8 8 8 8 8 8 9 10 11 12 13 13 14 14 14 15 16 16 16 17 17 17 17 18 18 19 19 19 19 19 19 20 20 19 20 20 19 20 20 19 19 21 25 28 26 24 21 18 16 15 15 14 13 12 13 15 16 15
23 24 25 26 24 23 23 22 22 22 21 19 17 13 10 9 9 9 9 8 9 9 7 6 7 7 9 10 11 10 10 10 10 9 9 9 8 8 8 8 8 8 9 9 10 10 11 12 13 14 15 15 16 16 17 17 18 18 18 17 17 18 18 18 19 20 21 22 21 21 20 20 19 19 20 20 21 23 25 25 27 29 30 30 29 27 23 20 19 19 19 18 17 16 16 17 17
21 22 23 25 24 24 24 23 21 20 20 19 17 15 13 12 11 11 12 11 12 11 8 6 7 8 8 10 10 10 10 11 11 11 10 10 9 9 9 9 10 10 10 11 11 11 12 13 14 15 16 16 17 18 18 19 19 19 19 19 19 19 19 19 20 21 22 22 23 23 22 22 21 20 20 21 22 23 26 27 28 28 28 28 28 28 27 25 23 22 22 22 22 20 19 19 19
18 20 21 22 23 23 23 23 22 20 19 17 16 15 14 12 12 12 12 12 12 11 9 7 7 9 9 9 10 10 10 11 12 12 11 11 12 11 11 11 11 12 12 12 12 12 13 14 14 16 16 17 17 18 19 19 20 20 20 20 21 20 20 20 22 23 23 22 23 23 23 23 24 24 24 24 24 24 26 27 27 27 26 25 24 24 26 27 27 26 26 27 26 25 23 22 21
16 17 19 19 20 21 22 22 22 21 20 19 17 16 14 14 13 12 11 11 10 10 9 8 8 8 9 10 10 10 10 11 13 13 12 13 14 14 14 13 13 14 14 14 14 14 15 16 16 17 17 18 19 20 21 21 21 22 21 22 22 22 21 22 23 24 24 24 24 25 25 26 26 27 27 28 28 28 28 29 29 29 28 26 25 24 24 25 26 26 27 29 29 28 26 25 24
13 14 16 17 17 19 20 20 20 20 20 20 18 17 16 16 15 14 12 10 9 10 11 10 10 10 11 11 11 11 10 10 12 13 13 14 14 15 15 15 15 15 16 16 16 17 17 17 18 19 19 20 21 22 23 23 23 23 24 24 24 24 24 24 24 24 25 26 27 27 27 28 29 30 30 31 30 30 31 31 32 32 31 29 27 26 25 25 25 25 25 27 28 28 28 28 28
11 11 13 15 15 16 17 17 17 18 18 18 18 17 16 16 16 16 14 12 10 10 10 10 11 12 11 11 11 11 10 10 11 11 12 14 14 15 15 15 15 15 16 16 16 17 17 18 18 19 20 21 22 23 24 25 25 25 25 26 26 26 26 26 26 26 27 27 28 28 29 29 30 31 32 32 32 32 33 33 33 33 33 32 30 29 28 27 26 26 25 26 28 28 28 29 31
9 9 10 11 12 13 14 14 14 15 15 15 16 16 15 14 14 15 15 14 12 10 9 10 10 10 10 10 10 10 10 10 11 10 11 12 12 13 13 13 14 14 15 15 16 16 17 17 18 19 20 21 22 24 25 26 26 27 27 28 28 28 28 29 29 28 28 28 28 29 29 29 30 31 32 33 33 33 34 34 34 34 34 33 32 31 30 29 28 28 27 27 28 29 29 31 32
8 8 8 8 9 11 11 11 12 13 12 12 12 12 13 13 13 12 12 12 12 10 10 9 9 10 10 10 10 9 8 9 11 11 10 11 10 10 12 13 13 13 14 15 15 15 16 16 17 18 20 21 22 24 26 27 28 29 29 30 30 30 30 30 30 30 30 30 30 30 30 30 30 31 32 32 33 34 34 34 34 35 35 34 34 33 32 32 31 31 30 30 30 30 31 32 33
9 7 6 6 7 8 8 9 9 11 11 11 10 8 9 10 10 10 10 9 9 9 9 8 7 8 8 8 10 9 8 8 9 9 10 10 10 10 12 13 13 13 14 15 16 15 15 15 16 18 20 22 23 25 26 28 29 30 30 30 31 31 32 32 32 31 32 32 32 33 33 33 33 33 33 33 34 34 35 35 35 35 35 35 34 34 33 33 33 33 33 32 32 31 31 33 34
9 8 7 6 4 5 5 6 7 8 8 9 10 8 7 7 6 8 10 9 8 7 7 7 7 8 8 8 9 9 9 9 9 9 9 10 11 11 12 13 13 13 14 16 18 18 17 16 16 17 20 23 24 25 26 28 29 30 31 31 32 33 33 34 34 34 34 34 34 35 35 35 35 35 34 34 34 35 35 35 36 36 36 36 36 35 34 34 34 34 34 34 33 32 32 33 35
10 9 8 8 6 4 3 4 4 5 6 6 7 8 6 6 5 5 7 8 8 8 7 7 7 8 9 9 9 9 10 11 11 10 10 10 11 11 13 15 13 13 14 16 19 20 20 19 17 17 20 23 26 26 26 27 29 30 31 33 34 34 35 36 36 36 37 37 37 37 37 37 37 36 36 36 35 35 35 35 36 36 37 37 37 36 36 35 35 35 35 35 35 34 33 33 34
12 11 10 9 9 7 5 3 3 3 4 5 5 5 5 6 6 5 6 6 7 7 7 7 7 8 9 10 10 10 11 13 13 12 11 12 13 13 15 17 16 16 16 18 21 22 21 21 19 18 20 24 27 27 26 28 30 31 32 33 35 35 36 37 38 38 39 39 39 40 40 40 39 39 38 37 36 36 35 35 35 36 37 37 38 38 37 36 36 36 36 36 36 36 35 34 34
14 13 12 11 10 10 9 7 5 3 3 3 4 4 3 4 5 5 6 6 6 6 6 7 8 9 9 10 12 11 11 13 13 13 13 14 13 14 16 17 16 16 17 19 23 24 21 20 19 18 21 25 28 28 27 28 31 32 32 33 35 36 36 37 38 39 40 41 41 42 42 43 43 42 41 40 39 38 37 36 35 35 35 36 37 38 38 37 37 37 37 37 38 38 37 36 35
17 16 14 13 12 11 11 11 8 7 6 5 5 6 5 4 5 5 5 6 6 6 6 6 8 9 9 10 11 12 11 12 13 13 13 14 13 14 16 16 15 16 18 20 23 24 22 19 16 17 23 28 30 29 28 29 31 32 32 33 35 36 37 38 38 40 41 42 43 44 46 47 47 47 46 45 44 42 40 39 37 36 35 35 35 37 38 38 38 38 38 38 38 39 39 39 38
20 19 17 16 15 13 13 13 12 10 9 8 7 7 8 7 6 6 6 6 6 6 6 6 8 9 10 11 11 12 12 13 14 13 13 14 14 15 16 16 17 19 20 22 24 24 24 21 18 20 25 31 32 31 30 30 32 33 34 35 36 37 39 39 40 41 43 44 44 46 47 49 51 51 50 49 48 47 45 43 42 40 38 37 36 36 37 38 39 39 39 39 39 39 40 41 41
23 22 20 19 17 16 15 14 14 13 12 11 9 8 9 10 10 10 9 9 8 7 7 7 8 9 10 11 12 13 14 15 15 15 14 15 16 16 17 18 19 21 22 24 24 24 24 23 22 24 28 31 33 33 33 33 34 36 37 37 38 39 40 41 41 42 45 47 47 49 50 51 53 53 53 52 51 51 50 48 46 44 41 40 38 37 37 38 39 39 40 40 40 40 40 41 43
26 24 24 22 20 19 18 17 16 15 15 13 10 9 9 10 12 12 12 13 11 11 10 9 10 11 11 12 13 15 16 17 17 17 16 16 17 18 18 18 20 23 23 24 25 25 25 25 25 28 30 32 35 35 36 36 36 38 39 40 40 41 42 44 43 41 44 48 49 51 53 54 55 56 56 55 53 53 53 52 49 47 45 43 40 39 38 38 39 39 40 41 41 41 41 41 43
27 27 28 25 23 23 21 20 19 18 18 16 13 12 10 10 12 13 14 15 14 14 14 13 12 12 13 13 14 16 18 18 18 19 19 18 18 19 20 20 22 24 25 26 27 27 27 27 29 30 32 34 36 38 38 38 38 40 41 42 43 44 45 47 46 42 44 48 51 53 55 56 57 58 58 57 56 56 57 55 52 49 47 45 43 41 40 39 39 39 40 41 41 42 41 42 43
29 30 31 28 26 26 25 23 22 21 21 19 16 15 14 13 13 13 15 16 16 16 16 16 15 14 14 14 14 18 20 20 20 21 21 20 20 22 24 24 24 25 27 28 29 30 30 31 31 32 34 36 38 39 40 41 41 42 44 46 47 47 48 49 49 46 45 48 51 55 58 59 59 60 61 61 61 61 60 58 56 53 50 48 45 44 43 42 41 40 40 41 42 42 42 42 43
31 33 33 31 29 29 29 27 25 25 24 23 21 18 17 16 15 15 16 17 18 19 19 19 19 18 16 14 14 17 21 23 22 23 25 23 22 23 26 27 26 26 28 31 31 32 33 34 34 34 35 37 38 40 42 44 45 45 47 50 50 51 51 51 53 52 49 47 49 55 60 62 62 63 64 65 65 64 63 61 59 57 54 51 49 46 45 43 42 41 41 42 42 43 43 44 44
34 35 34 34 32 31 31 31 30 28 27 27 25 22 21 20 18 18 18 18 19 21 22 24 25 24 20 18 17 17 21 25 25 24 26 28 27 26 28 29 28 28 31 34 34 34 35 37 37 37 37 38 39 42 44 46 48 49 50 52 53 54 54 54 56 56 53 49 47 53 61 64 65 65 66 68 67 66 64 63 62 61 59 55 52 49 47 45 43 42 41 42 42 43 44 45 45
36 36 36 36 36 34 33 33 32 32 31 31 29 27 25 24 22 21 20 20 21 21 23 24 27 30 27 23 21 21 22 24 26 27 28 30 30 30 30 30 30 32 34 36 37 37 38 39 39 38 38 39 41 43 46 48 50 51 52 53 55 56 56 56 58 59 56 51 47 52 61 64 67 68 68 70 69 67 66 65 65 65 62 59 55 52 49 47 45 43 42 41 41 42 43 44 45
38 37 38 39 39 38 35 34 34 34 34 34 33 32 30 27 26 26 23 23 24 24 24 24 26 31 32 29 27 26 25 25 27 29 29 31 32 33 33 33 33 35 37 38 38 38 39 40 41 40 38 40 43 45 48 50 52 52 53 55 56 57 57 57 59 59 55 49 47 53 61 64 67 70 71 72 71 69 68 68 69 68 66 62 57 54 51 49 47 45 43 42 42 42 43 43 45
40 39 41 42 41 39 38 37 37 37 36 36 37 36 33 31 30 31 27 25 28 28 27 27 27 29 32 33 32 30 29 29 29 31 32 32 33 35 35 35 36 38 39 39 40 40 41 42 42 41 40 43 47 48 49 52 55 54 54 56 57 58 58 58 59 57 52 49 50 55 61 64 67 71 73 73 73 71 69 70 72 71 69 65 60 56 53 50 48 46 44 43 43 43 43 44 45
42 41 44 44 42 40 41 41 39 39 39 39 39 38 36 34 33 34 32 30 32 33 32 31 30 29 31 33 34 34 32 32 33 33 34 34 35 36 37 37 38 39 40 41 42 43 43 43 42 42 43 47 49 49 51 55 57 56 56 57 57 57 59 60 59 56 52 51 54 58 62 64 67 72 74 74 74 71 70 73 75 74 71 67 63 60 56 52 49 46 44 43 43 44 44 44 45
43 44 46 46 43 43 43 42 42 42 42 41 42 41 39 38 35 35 35 34 36 37 38 37 34 32 31 32 34 35 34 34 34 35 36 36 37 38 38 39 39 40 41 42 44 44 44 44 44 45 47 48 49 50 53 56 58 58 58 58 58 59 60 61 60 55 51 50 54 59 63 65 68 72 73 75 75 70 69 75 76 75 73 70 68 66 61 56 50 46 44 43 42 43 44 45 46
46 46 48 47 45 46 45 45 45 45 44 43 44 44 42 40 38 36 36 36 37 40 42 42 40 38 35 33 35 37 36 35 35 36 37 38 39 39 39 40 40 41 42 43 45 45 46 46 47 48 50 50 51 53 55 57 57 58 59 58 59 61 62 63 62 54 48 48 53 59 64 67 69 71 73 76 74 68 69 76 78 77 76 74 72 70 65 58 52 48 46 44 42 42 43 44 46
48 49 49 48 48 49 49 48 46 46 46 45 46 47 44 41 40 39 38 39 40 42 42 42 43 44 41 38 39 40 39 38 37 38 39 40 41 41 41 42 42 43 43 44 46 47 47 48 49 50 51 52 54 55 58 58 57 59 59 57 60 63 63 65 62 53 45 46 52 57 64 69 70 72 76 78 75 70 71 78 81 81 81 78 74 72 66 59 54 51 49 46 44 42 42 43 44
51 52 50 49 51 52 52 50 47 47 48 47 49 49 45 42 41 41 42 43 44 44 43 42 43 45 46 43 41 42 42 41 39 39 41 42 42 43 44 44 44 45 45 46 47 48 49 50 51 52 53 54 56 57 59 58 57 60 58 55 61 65 65 67 61 50 45 47 53 59 64 70 72 75 78 79 79 77 76 80 84 85 84 82 76 71 65 58 54 52 49 46 44 42 42 43 44
Wind_Direction
175 180 184 189 189 185 181 186 191 182 183 192 199 201 200 203 204 201 200 205 207 204 202 206 210 205 205 209 211 213 215 216 220 225 228 231 228 225 228 237 234 222 228 235 235 245 261 268 266 263 261 261 261 259 258 259 263 267 268 268 268 267 269 266 263 270 277 278 281 285 288 288 288 291 296 300 302 304 306 307 308 306 307 309 312 314 316 317 316 318 322 328 330 329 332 340 350
174 177 181 185 186 186 179 181 186 178 173 180 191 193 192 198 201 200 199 200 203 205 205 207 210 208 209 211 214 217 220 221 223 226 228 229 230 226 223 230 234 232 236 244 250 257 263 266 265 263 266 268 267 267 266 258 254 258 262 265 265 262 265 267 268 275 281 284 289 292 293 293 297 300 302 304 305 306 307 308 309 308 308 311 316 320 325 328 329 332 335 339 337 336 340 347 1
175 177 180 183 181 183 181 178 180 177 176 182 192 194 195 199 200 203 205 207 205 205 207 210 213 212 213 216 218 218 221 225 227 231 230 227 224 222 220 222 230 237 243 250 256 260 264 261 259 261 265 266 266 267 265 260 257 258 261 262 262 261 265 271 275 281 285 288 290 293 295 297 302 305 306 307 307 308 309 309 309 308 309 312 318 325 331 335 336 336 337 341 340 340 344 350 359
177 178 181 185 182 183 182 177 176 178 184 190 197 200 203 207 208 207 207 210 211 209 209 212 216 218 219 221 223 222 223 228 231 234 234 227 221 218 217 219 225 230 233 241 246 252 259 256 254 259 258 254 254 256 253 252 257 260 262 262 263 266 270 276 283 287 290 292 294 298 302 304 306 307 308 309 309 310 310 311 311 310 310 313 318 323 327 331 333 334 337 340 340 341 347 353 352
176 178 181 186 186 185 184 178 175 180 189 196 200 204 208 214 216 214 210 211 213 214 215 216 218 220 222 224 227 229 229 232 235 236 238 235 230 226 223 223 228 231 230 232 236 241 250 252 250 250 249 246 245 246 245 247 253 257 260 263 269 275 280 286 290 292 294 296 299 302 305 306 307 308 309 309 309 309 311 312 312 313 312 311 316 322 324 326 331 333 336 337 339 344 350 352 342
174 175 179 186 187 186 185 184 181 181 190 197 201 204 207 213 215 215 213 213 214 215 218 221 221 222 225 229 232 234 235 236 238 239 241 241 240 237 234 232 234 237 235 232 235 238 242 247 248 245 245 249 252 254 254 255 258 261 263 269 276 281 285 288 289 291 294 297 302 304 306 308 309 308 308 308 307 308 309 308 310 313 310 309 314 320 322 325 329 331 332 333 337 345 353 349 338
171 172 175 184 188 187 186 188 191 190 192 198 202 205 207 210 211 211 211 211 212 213 216 220 222 225 228 232 235 237 237 237 237 237 239 240 241 241 242 241 239 240 240 240 243 244 243 246 250 252 252 256 261 265 267 269 269 269 270 273 276 279 281 284 286 289 292 297 301 303 305 306 306 306 307 306 305 305 304 303 304 307 307 307 312 316 318 322 325 327 328 330 334 346 357 346 335
172 177 176 179 186 191 192 193 198 200 200 202 203 208 211 211 210 209 208 208 208 210 213 217 220 223 225 229 232 234 234 234 234 233 236 239 240 242 245 247 246 245 245 247 251 254 254 253 255 259 262 263 264 266 269 272 274 274 274 274 275 277 280 283 286 289 292 296 298 300 302 303 304 306 306 306 303 301 300 301 301 303 305 306 309 311 311 315 320 322 324 326 331 350 3 345 333
173 183 183 179 186 194 200 204 204 204 204 205 204 206 210 212 213 211 210 210 210 211 213 216 219 221 223 225 227 229 229 231 233 234 237 240 243 244 246 250 251 252 252 253 256 259 261 261 261 262 265 267 268 268 269 271 272 273 274 275 277 279 282 284 287 290 293 295 297 299 300 302 304 306 307 307 305 301 299 300 301 303 304 304 306 306 304 308 313 316 320 323 329 358 10 350 333
165 178 182 181 189 196 203 209 208 207 208 209 207 207 210 214 216 216 215 215 214 215 217 219 223 226 228 229 231 232 232 233 236 239 241 244 247 249 250 253 255 256 258 258 259 261 262 263 265 265 266 267 268 269 270 271 272 274 275 277 280 282 284 287 289 291 293 295 297 299 300 301 304 307 309 309 306 304 302 302 302 302 303 302 303 302 299 302 306 311 315 319 329 14 23 1 342
165 172 182 185 195 202 205 210 209 207 208 209 210 211 213 217 219 220 220 220 220 220 221 223 226 230 234 237 239 240 241 241 243 245 247 249 251 253 254 256 258 260 262 264 265 266 267 268 268 269 269 270 270 271 273 274 275 277 278 280 282 284 286 288 290 292 293 295 296 298 300 302 307 311 312 311 309 309 309 308 305 304 304 304 303 302 299 301 305 307 309 314 325 46 48 52 52
175 173 195 204 203 204 206 209 208 205 205 207 210 214 216 219 221 222 223 223 224 225 226 227 229 233 237 240 242 243 245 246 248 250 252 254 256 258 259 260 262 264 266 269 270 271 272 272 272 273 274 274 275 276 277 278 279 280 281 283 284 285 286 288 290 291 292 293 296 299 302 307 312 315 317 317 316 315 315 315 313 312 310 309 307 306 304 306 308 306 308 311 344 70 68 93 91
185 180 209 217 206 205 207 208 206 203 202 204 208 213 218 221 224 225 226 226 227 228 230 232 234 236 239 242 244 245 247 248 251 253 256 258 261 264 265 267 268 269 270 272 273 273 274 274 275 276 277 278 279 280 281 282 282 283 284 285 286 287 287 288 289 290 291 293 297 301 306 312 316 319 321 321 319 318 321 325 326 325 323 322 319 317 316 316 316 313 316 330 88 77 80 90 81
211 213 216 213 214 216 213 209 204 198 197 200 204 210 216 221 225 227 228 229 230 232 234 236 237 239 241 244 247 249 250 251 254 257 259 261 264 266 268 269 270 271 271 272 273 274 274 275 277 277 278 279 279 281 283 284 285 287 288 288 289 288 288 288 288 290 293 297 300 304 309 316 321 325 325 320 320 324 334 342 346 346 346 347 344 340 335 331 327 325 337 46 98 89 92 98 87
236 242 222 191 225 230 214 203 193 188 187 189 196 203 214 219 224 226 228 230 232 233 236 238 239 241 243 246 248 251 253 255 257 260 262 263 265 266 267 268 269 269 270 271 272 273 274 275 276 277 277 279 280 282 284 286 289 292 292 290 289 287 287 289 290 294 297 300 303 307 313 321 326 332 329 320 323 335 351 3 6 3 1 1 359 354 350 345 341 346 19 72 101 103 105 105 93
233 236 223 196 216 221 201 190 177 172 170 169 177 188 205 218 225 228 230 232 234 235 237 239 242 243 245 247 249 251 253 255 258 260 261 262 263 263 264 266 267 268 269 270 270 271 272 274 275 275 276 279 281 280 280 285 292 293 291 289 289 290 293 294 295 297 299 303 306 309 317 325 329 334 330 322 329 349 13 22 15 10 9 8 6 4 6 7 7 24 64 92 106 108 108 98 85
237 230 220 206 211 213 192 187 174 159 151 145 152 167 188 211 222 227 230 231 235 237 236 239 243 245 247 248 249 250 252 253 255 256 257 258 259 261 263 264 265 266 267 269 271 272 273 274 275 275 277 278 276 272 277 289 294 294 292 292 295 298 300 299 299 300 301 304 308 311 317 323 326 324 318 319 328 357 27 26 18 14 14 13 13 16 21 34 51 71 93 103 106 104 100 91 87
246 233 222 208 207 216 195 174 171 143 125 121 123 128 147 191 212 215 220 218 225 237 239 239 242 245 247 247 247 247 247 247 247 249 251 254 256 258 260 260 260 261 266 271 274 275 275 276 278 278 277 273 269 273 285 293 296 297 296 295 299 302 301 300 300 300 301 305 308 310 313 317 317 308 306 315 328 357 20 20 24 25 22 20 20 25 30 43 64 88 107 108 105 101 99 96 96
165 225 226 214 201 211 201 174 165 138 127 127 124 125 130 156 186 194 203 197 199 219 231 231 234 239 241 241 240 238 237 236 236 239 243 247 251 256 259 261 260 261 267 274 277 279 282 286 286 281 274 270 274 282 288 292 295 298 298 298 300 300 300 301 300 300 302 306 308 311 313 312 309 300 296 313 326 331 359 11 27 30 27 25 21 25 30 38 50 78 109 115 113 108 107 106 101
74 131 205 211 196 202 204 180 161 146 145 142 134 135 142 167 181 189 198 192 189 190 193 198 202 208 215 221 225 223 221 221 221 224 231 239 250 259 265 267 268 269 273 278 282 284 286 292 292 282 275 274 279 284 289 293 296 299 300 301 301 300 300 300 299 299 303 305 308 314 315 310 304 296 290 304 318 302 347 4 23 29 27 27 24 21 19 25 35 46 83 124 125 122 124 127 122
65 87 123 183 193 197 200 184 163 156 156 148 141 140 147 167 177 181 185 186 188 183 181 183 182 184 185 195 204 203 204 207 208 217 234 250 264 271 275 277 279 281 282 284 286 288 288 290 290 286 282 282 284 287 291 295 298 300 301 303 303 301 301 300 301 302 300 304 307 312 314 310 303 295 292 296 294 244 300 347 11 23 25 27 28 25 16 12 19 30 33 170 159 143 148 164 165
61 72 92 138 182 197 200 187 168 159 156 148 144 143 147 162 168 166 164 174 182 183 183 177 169 178 179 190 208 204 211 230 246 265 273 278 281 282 282 283 285 286 288 289 290 292 293 293 290 287 287 288 289 291 294 298 300 301 302 305 305 303 302 302 305 301 294 298 303 307 310 308 303 296 297 298 283 262 278 309 351 17 31 29 26 26 20 11 6 13 24 185 196 191 196 209 204
59 67 78 100 144 184 193 185 171 165 158 151 147 139 146 167 171 162 142 140 161 169 181 172 151 326 312 293 278 273 284 296 297 299 296 294 294 293 294 295 295 296 297 297 296 296 294 293 291 289 290 291 293 296 299 302 302 302 303 304 305 305 302 303 307 302 294 297 301 302 304 303 300 294 294 295 284 273 271 273 298 357 29 30 24 20 15 9 5 5 7 304 217 223 228 236 226
57 63 71 81 98 135 165 174 173 170 163 158 148 134 135 166 177 170 151 144 152 162 162 144 344 328 329 314 304 305 308 307 306 308 309 306 303 301 301 302 303 303 303 302 300 298 296 296 297 297 299 300 302 304 305 306 306 306 307 308 310 307 303 304 308 306 300 298 297 295 294 295 295 296 294 294 293 288 283 272 264 287 326 357 9 4 360 355 358 4 346 298 255 243 243 251 241
57 61 68 75 84 95 117 142 159 167 165 159 147 132 127 135 151 171 182 153 155 181 169 47 1 347 339 328 321 323 321 317 315 314 312 309 305 302 302 305 304 304 304 305 304 303 303 304 305 306 308 310 310 311 311 311 309 308 308 309 307 304 302 303 305 307 306 301 297 293 289 286 287 293 292 294 299 292 285 272 254 260 285 305 325 327 328 333 338 339 322 297 276 263 256 260 254
55 59 64 71 78 85 94 105 122 140 148 145 136 129 127 125 125 137 154 130 142 195 253 6 4 350 340 331 329 327 325 321 319 316 312 309 307 306 306 308 306 305 306 307 306 308 312 314 315 316 317 317 316 317 315 311 308 307 307 306 303 301 302 305 305 304 306 305 303 298 292 285 280 283 284 287 292 281 269 262 245 256 278 291 300 302 301 301 308 312 305 298 288 279 270 266 261
51 55 59 64 69 74 81 87 94 105 116 123 126 129 133 134 130 121 122 114 95 264 330 17 12 3 355 347 345 340 332 329 326 323 318 315 316 315 315 312 308 307 309 310 309 313 320 323 324 326 326 325 324 323 319 314 310 310 311 310 306 300 298 302 305 302 301 302 302 300 298 293 284 278 274 275 276 264 254 263 272 280 287 289 292 293 291 285 278 280 288 295 294 289 282 275 267
48 52 57 60 65 69 73 79 83 86 94 103 113 124 134 139 155 130 91 86 61 46 52 43 23 22 21 16 13 7 2 358 348 337 331 327 325 322 319 316 314 315 316 318 321 326 331 332 332 333 332 331 329 326 321 318 316 315 315 314 310 303 297 296 298 298 297 297 299 302 303 301 294 284 273 264 264 260 257 269 282 290 295 295 294 292 290 283 272 266 267 276 287 289 285 279 272
47 51 55 58 63 69 73 80 83 84 86 91 99 116 134 142 139 109 85 80 67 60 59 42 31 35 35 34 32 24 19 16 6 356 349 346 344 339 334 329 329 329 332 335 335 337 338 336 334 333 332 331 329 326 323 320 318 318 317 316 311 306 300 298 298 298 297 297 297 301 306 306 299 290 281 267 261 261 262 269 278 288 296 297 296 293 289 282 274 269 266 267 272 277 279 276 271
47 51 54 57 62 69 73 78 85 86 87 88 92 100 113 119 110 92 82 79 72 68 63 45 41 41 36 40 39 30 27 27 22 16 11 6 0 355 352 349 347 345 345 346 345 342 338 335 333 331 330 330 328 326 324 321 320 319 317 314 312 308 304 302 302 302 299 298 295 295 302 306 300 289 283 275 268 266 267 272 278 287 294 296 295 292 288 284 276 271 269 268 268 268 270 269 267
45 50 54 57 62 68 70 74 82 87 89 88 86 87 91 97 92 81 79 80 75 69 68 61 52 46 40 43 44 37 34 34 30 26 23 19 12 8 6 4 3 0 357 354 351 348 344 340 338 338 337 336 335 333 331 330 328 325 322 319 318 315 311 308 308 306 303 301 300 297 300 306 305 297 290 285 279 276 277 280 285 290 292 293 293 288 283 281 277 272 270 271 270 268 265 262 262
41 47 53 56 60 65 68 73 80 84 87 86 83 83 84 87 88 85 82 78 73 68 64 60 52 48 44 45 43 34 33 37 36 34 32 30 26 23 22 21 18 16 14 10 7 5 2 359 357 356 355 354 352 350 349 347 345 341 336 333 331 328 321 316 314 311 307 305 303 300 299 300 302 301 299 296 292 289 287 287 288 289 290 291 291 286 279 276 273 270 269 269 269 267 264 258 256
37 43 49 53 58 63 67 73 79 81 82 82 81 81 80 80 83 86 82 72 68 62 53 48 47 47 45 45 38 27 31 38 38 39 39 39 39 37 36 36 35 34 33 30 27 25 22 19 16 14 12 11 9 7 5 4 1 357 351 347 344 341 335 328 323 319 314 310 306 301 297 295 294 295 295 296 296 294 293 291 290 289 289 288 288 288 284 280 276 271 267 265 264 262 261 256 253
31 39 46 49 53 59 64 70 77 81 82 81 80 80 78 77 77 79 77 72 70 61 51 49 52 49 43 41 32 26 33 34 34 44 47 45 45 44 44 44 44 45 44 41 38 35 32 28 24 21 19 17 15 13 11 10 8 5 360 357 354 351 347 341 335 329 323 318 314 309 304 300 298 296 295 295 294 293 292 291 290 289 288 288 287 287 287 286 283 277 270 265 261 258 256 254 251
20 31 42 46 48 54 59 65 72 78 81 82 81 82 80 77 76 76 76 77 77 62 52 57 58 51 43 38 31 31 37 32 31 43 44 43 45 44 44 45 45 46 45 43 40 36 32 29 24 21 19 17 16 14 12 11 9 7 4 1 360 358 355 351 347 342 335 328 323 318 313 308 304 301 299 298 296 294 292 290 288 287 286 286 286 285 285 285 284 280 274 267 262 259 255 251 249
6 17 32 42 44 48 52 57 64 69 74 79 81 81 80 77 73 74 74 77 79 67 57 64 68 59 46 38 34 33 35 29 27 29 29 33 39 40 39 39 39 39 38 36 34 31 27 24 20 18 16 15 14 14 12 10 8 6 5 2 0 360 358 356 354 350 345 340 334 328 322 316 311 306 303 300 298 296 293 291 288 286 285 284 283 283 283 283 282 281 277 270 265 261 257 253 249
349 359 14 29 39 43 46 49 54 57 60 67 74 79 79 74 71 70 69 71 74 71 65 66 70 64 49 39 35 29 21 15 16 17 15 16 19 24 27 26 24 23 24 24 23 22 19 16 14 13 12 11 11 10 9 8 6 5 4 1 359 358 357 357 355 353 351 349 345 341 336 330 324 317 311 305 301 298 294 292 289 287 285 283 282 281 281 281 280 279 277 274 270 265 261 257 253
333 336 348 8 27 36 37 39 46 50 50 51 56 69 73 65 66 66 60 55 55 58 58 55 56 52 43 33 25 17 8 359 356 360 359 0 360 0 7 10 12 14 14 14 12 10 8 7 8 10 10 9 7 7 6 4 3 2 1 359 358 356 356 356 355 354 353 352 350 348 346 341 336 330 324 316 310 304 299 295 292 289 286 284 283 281 279 278 277 276 274 272 271 268 264 261 259
320 321 321 326 351 23 30 29 36 41 42 42 45 57 59 48 57 66 57 46 34 32 38 38 37 37 35 25 11 6 4 356 347 341 336 343 349 350 353 353 356 4 6 4 4 3 0 357 0 8 12 10 7 5 3 1 360 358 357 356 356 355 355 355 354 353 353 352 351 350 349 347 343 339 333 327 320 313 307 301 296 292 289 286 283 280 277 275 274 272 271 270 268 267 265 262 261
308 310 308 304 306 322 356 11 21 29 30 30 40 53 48 32 38 51 50 44 32 22 24 28 30 30 29 24 11 3 4 1 350 337 328 329 330 334 345 346 340 339 343 349 353 357 359 356 351 355 2 3 1 0 360 359 357 356 354 353 353 353 353 353 353 353 353 352 352 351 350 348 346 343 339 334 329 322 316 308 302 295 291 287 284 281 279 276 273 271 270 269 267 266 264 262 261
300 301 301 298 293 293 293 304 336 1 11 9 18 38 36 25 25 25 27 30 25 14 11 14 13 10 12 15 13 8 4 2 355 345 340 337 331 331 339 344 340 330 327 329 334 340 350 356 351 345 347 349 348 349 352 355 356 354 353 351 351 351 351 351 352 353 353 353 352 351 350 349 347 345 342 339 335 331 325 318 310 302 296 291 287 284 281 278 275 273 272 271 269 267 264 262 261
295 293 294 294 290 288 284 278 276 284 313 334 337 348 5 13 11 11 13 11 10 6 3 0 358 356 358 2 6 6 3 1 358 354 350 344 338 337 340 342 341 337 329 326 327 329 333 345 356 356 353 350 347 343 344 348 351 351 351 349 348 348 349 350 351 352 352 353 352 351 350 349 348 346 344 342 340 336 332 326 319 310 302 295 290 285 282 279 276 274 272 271 270 269 267 263 260
288 287 287 290 289 289 285 281 276 270 270 279 302 315 324 335 343 345 349 352 353 356 356 350 347 349 347 348 353 354 353 352 351 351 351 350 342 335 337 339 339 339 337 336 336 334 328 328 342 352 352 351 350 346 341 340 343 345 347 347 346 345 346 347 349 351 351 351 351 351 350 349 348 347 345 344 343 341 338 334 328 321 313 304 295 289 284 280 277 275 273 271 269 269 268 266 263
280 282 285 286 287 287 285 284 283 280 275 272 277 293 303 309 311 315 318 322 329 335 343 338 333 339 337 335 338 339 338 339 339 339 340 347 345 336 332 332 334 336 339 343 344 342 336 325 319 325 336 343 345 345 341 339 339 341 344 345 345 344 344 344 344 346 349 349 350 350 350 349 348 347 346 344 344 343 341 338 334 329 323 316 306 297 288 283 279 276 274 272 269 268 267 266 264
273 278 281 281 282 284 282 281 279 277 275 272 270 275 288 297 298 300 300 301 307 309 316 319 319 325 328 326 326 328 329 329 330 330 329 334 338 336 331 327 329 332 335 341 343 344 344 338 328 325 331 337 341 342 340 339 340 341 342 343 343 343 343 342 340 341 345 347 348 349 349 349 349 348 346 344 343 343 342 339 336 332 327 322 315 306 295 287 281 277 274 271 269 267 266 265 264
269 273 275 276 278 279 279 279 277 275 273 270 271 271 277 291 295 296 299 299 301 301 303 307 309 313 316 318 318 319 322 324 324 322 321 325 329 330 329 326 327 330 333 338 340 340 342 342 338 335 334 335 338 339 339 338 339 340 341 341 341 341 340 341 339 339 343 345 346 347 348 348 349 348 347 344 343 342 342 340 336 333 329 324 319 312 303 293 285 279 274 271 269 267 265 264 263
265 268 270 272 275 277 277 278 279 278 276 273 273 272 271 280 287 293 298 298 300 300 300 299 298 301 305 310 314 314 315 318 320 318 315 318 321 323 325 326 326 328 329 333 335 335 336 338 337 336 334 334 336 337 337 338 337 337 339 339 339 339 339 340 340 339 341 345 346 347 347 348 348 348 347 344 342 340 340 339 337 333 329 325 321 315 308 300 292 284 277 273 270 268 266 264 262
263 263 265 267 270 274 275 275 276 278 278 276 273 272 271 273 277 286 292 293 296 296 295 295 292 290 294 301 310 312 311 312 316 318 315 316 316 314 317 321 323 325 325 326 329 330 329 331 333 334 333 333 334 335 336 337 336 335 336 338 338 338 338 339 339 336 335 339 344 347 347 347 347 346 345 344 341 339 338 338 337 334 330 326 321 316 311 305 299 291 283 277 273 270 268 266 263
260 260 262 264 266 268 272 274 274 275 276 277 274 273 273 273 274 280 285 289 294 295 295 296 295 293 294 298 304 307 307 308 313 315 315 316 316 313 313 314 317 323 323 321 324 326 325 324 326 328 330 331 332 334 334 335 336 336 336 337 337 337 337 337 336 334 329 327 335 343 346 346 345 344 344 342 340 339 338 337 337 335 332 327 323 318 312 307 302 295 288 282 276 273 270 268 266
257 259 261 262 263 263 266 269 271 272 274 274 274 274 273 274 274 276 280 284 289 294 298 301 300 299 298 300 302 303 304 306 310 313 313 313 314 314 314 313 312 317 321 320 321 323 323 322 322 324 326 328 330 333 333 334 334 335 336 335 335 335 335 335 335 332 326 319 322 334 341 343 343 342 342 341 339 338 337 336 336 335 332 329 324 319 314 309 303 297 291 284 278 273 270 268 266
256 259 261 261 261 261 261 263 267 269 271 272 273 274 273 274 275 276 278 281 284 289 294 299 301 300 300 301 301 302 302 304 307 309 310 310 312 314 315 315 313 314 316 318 319 321 322 322 321 321 323 325 328 331 332 332 332 333 334 333 333 333 333 334 335 332 326 318 316 325 334 339 340 340 340 340 338 337 337 336 335 334 332 329 325 320 316 310 305 299 293 287 280 275 270 266 264
255 258 260 260 260 260 261 261 263 265 267 270 271 271 271 273 275 276 276 280 284 286 287 291 293 295 298 300 301 301 302 303 303 305 306 308 310 311 313 315 315 314 315 315 317 320 322 322 321 320 320 322 325 328 329 330 330 331 332 331 331 331 331 333 335 333 329 323 318 322 329 334 336 338 338 338 337 336 336 336 335 334 332 330 325 321 317 312 307 301 296 291 284 277 272 267 264
253 255 258 259 259 261 262 262 261 263 264 266 267 268 270 272 273 275 275 278 280 281 282 284 284 288 294 297 299 301 303 304 304 303 305 306 307 309 311 313 314 315 315 315 317 320 322 322 322 320 319 319 321 322 324 327 328 329 329 329 330 330 331 332 334 333 330 328 324 324 328 330 332 335 336 336 336 335 335 336 336 335 334 331 327 323 318 313 308 303 298 292 286 280 275 270 266
254 254 256 258 260 261 262 262 262 263 263 263 264 266 268 268 270 273 276 278 279 280 279 278 279 283 288 293 297 299 302 304 304 304 305 305 306 306 308 311 313 313 314 315 316 319 322 322 321 320 320 318 318 318 320 322 325 326 326 327 328 329 330 332 332 330 328 328 326 326 327 327 329 332 333 334 334 334 336 338 339 338 336 333 330 326 320 314 309 303 298 292 287 282 276 272 268
256 255 256 258 260 261 261 263 263 262 262 263 265 265 265 267 268 271 274 276 279 282 281 280 280 281 283 287 292 295 298 300 301 302 303 303 304 306 308 309 310 311 312 313 314 317 320 321 320 320 320 319 316 317 319 319 321 323 323 324 327 328 329 330 329 326 325 327 326 326 326 327 328 330 331 332 333 333 336 340 340 339 337 334 332 328 323 316 310 305 299 293 288 283 278 274 270
256 255 256 258 260 261 261 261 262 263 264 264 265 265 265 266 267 268 271 273 276 278 279 282 284 284 284 286 288 290 293 296 297 299 300 302 303 304 306 307 308 309 309 310 312 314 317 319 319 319 319 318 316 316 317 317 318 320 321 322 324 325 326 328 326 322 321 324 325 325 327 327 327 329 331 332 333 332 335 340 341 339 337 335 332 330 326 319 313 308 303 297 291 286 281 277 273
255 255 255 257 259 260 260 260 261 264 265 265 266 266 266 266 267 268 269 270 271 273 275 279 283 285 285 285 287 289 291 292 295 297 299 300 301 302 304 305 306 307 308 309 310 312 315 317 317 317 317 316 315 315 316 316 316 318 318 319 322 323 324 325 323 319 317 319 320 323 327 328 328 329 331 333 334 333 333 338 341 340 338 335 333 331 327 322 316 310 305 300 295 290 285 280 276
253 253 253 254 256 257 259 260 262 265 266 266 266 266 266 268 269 269 269 268 269 270 271 274 276 280 283 283 284 286 288 289 292 294 296 297 298 299 301 303 304 306 307 308 310 312 314 315 315 316 315 315 315 315 315 315 314 314 314 316 320 322 322 323 321 315 311 313 317 320 325 328 329 330 332 334 334 333 332 336 339 339 337 335 332 330 327 323 318 312 306 302 298 294 289 284 280